Regional Weather Roundup
Issued by NWS Sioux Falls, SD

Home | Current Version | Previous Version | Graphics & Text | Print | Product List | Glossary Off
Versions: 1 2 3 4 5 6 7 8 9 10 11 12 13 14 15 16 17 18 19 20 21 22 23 24 25 26 27 28 29 30 31 32 33 34 35 36 37 38 39 40 41 42 43 44 45 46 47 48 49 50

000
ASUS43 KFSD 230702
RWRFSD

WEATHER ROUNDUP FOR SE SOUTH DAKOTA/SW MINNESOTA/NW IOWA
NATIONAL WEATHER SERVICE SIOUX FALLS SD
200 AM CDT WED JUL 23 2014

NOTE: "FAIR" INDICATES FEW OR NO CLOUDS BELOW 12,000 FEET WITH NO
SIGNIFICANT WEATHER AND OR OBSTRUCTIONS TO VISIBILITY.


SDZ038>040-050-052>070-230800-
SOUTHEAST SOUTH DAKOTA

CITY           SKY/WX    TMP DP  RH WIND       PRES   REMARKS
CHAMBERLAIN    CLOUDY    66  59  80 CALM      30.26R
HURON          MOCLDY    64  58  80 E3        30.24R
MADISON        FAIR      63  63 100 NE5       30.26S
MITCHELL       MOCLDY    64  61  90 E6        30.24R
SIOUX FALLS    CLEAR     63  57  81 N5        30.25F
WINNER         FAIR      69  58  67 SE12      30.23F
YANKTON        PTCLDY    64  59  82 SE3       30.23F
$$

MNZ071-072-080-081-089-090-097-098-230800-
SOUTHWEST MINNESOTA

CITY           SKY/WX    TMP DP  RH WIND       PRES   REMARKS
FAIRMONT       CLEAR     63  54  72 N7        30.21S
JACKSON        CLEAR     61  54  77 NW8       30.23S
LUVERNE        CLEAR     64  54  68 N5        30.24F
MARSHALL       CLEAR     57  54  88 NW5       30.23F
MONTEVIDEO     CLEAR     61  55  82 N5        30.24S
PIPESTONE      CLEAR     61  54  77 CALM      30.26S
REDWOOD FALLS  CLEAR     65  57  75 NW7       30.22S
TRACY          CLEAR     62  57  83 NW6       30.25S
WINDOM         CLEAR     61  55  82 NW7       30.23S
WORTHINGTON    CLEAR     59  55  88 N5        30.25S
$$

IAZ001>003-012>014-020>022-031-032-NEZ013-014-SDZ071-230800-
NORTHWEST IOWA

CITY           SKY/WX    TMP DP  RH WIND       PRES   REMARKS
CHEROKEE       CLEAR     62  58  88 N3        30.23R
DENISON        CLEAR     66  59  77 N7        30.19R
ESTHERVILLE    CLEAR     61  55  81 N10       30.21S
LE MARS        PTCLDY    64  59  82 N7        30.22F
ORANGE CITY    PTCLDY    68  57  68 N9        30.23S
SHELDON        CLEAR     59  57  94 NW3       30.23S
SIOUX CITY     CLEAR     66  59  78 N6        30.22R
SPENCER        CLEAR     60  56  86 N7        30.23R
STORM LAKE     CLEAR     64  59  82 N8        30.23R
$$

ABBREVIATIONS USED IN REMARKS
   TC - TEMPERATURE IN CELSIUS
  WCI - WIND CHILL INDEX
   HX - HEAT INDEX
  VSB - VISIBILITY




USA.gov is the U.S. government's official web portal to all federal, state and local government web resources and services.